Вернуться в каталог

COSMOS 2251 DEB

АктивенVLEO
NORAD 34301·DEBRIS·🇷🇺 Russia

Запущен Jun 16, 1993 с Plesetsk Cosmodrome

Loading…

Ближайшие Пролёты (ближайшие 24 часа)

TLE

СвежийSource: Space-Track

Эпоха: Sep 14, 2026, 04:31 UTC

1 34301U 93036MX  26257.18859895  .00020117  00000-0  16249-2 0  9992
2 34301  74.0021 332.2225 0013211 331.5629  56.9932 14.99714879925103

Отслеживайте COSMOS 2251 DEB в реальном времени с AllMySat

Download on the App Store